Regional Weather Roundup
Issued by NWS Portland, ME

Home | Current Version | Previous Version | Text Only | Print | Product List | Glossary On
Versions: 1 2 3 4 5 6 7 8 9 10 11 12 13 14 15 16 17 18 19 20 21 22 23 24 25 26 27 28 29 30 31 32 33 34 35 36 37 38 39 40 41 42 43 44 45 46 47 48 49 50
000
ASUS41 KGYX 020610
RWRGYX
WEATHER ROUNDUP FOR MAINE AND NEW HAMPSHIRE
NATIONAL WEATHER SERVICE GRAY ME
200 AM EDT THU OCT 02 2014

MEZ002-005-006-010-012-015-018-020-021-024-026-027-029-020700-
MAINE

CITY           SKY/WX    TMP DP  RH WIND       PRES   REMARKS
PORTLAND       CLOUDY    56  51  84 N9        30.16S
6HR MIN TEMP:  56; 6HR MAX TEMP:  58;

SANFORD        CLOUDY    54  48  82 N10       30.15S
BAR HARBOR     CLOUDY    52  52 100 NE8       30.18S
WISCASSET      CLOUDY    56  51  84 CALM      30.18S
6HR MIN TEMP:  56; 6HR MAX TEMP:  58;

ROCKLAND       CLOUDY    55  50  82 NE9       30.16S
FRYEBURG       CLOUDY    55  50  83 NE5       30.18F
6HR MIN TEMP:  55; 6HR MAX TEMP:  58;

LEWISTONAUBURN CLOUDY    55  48  76 NE7       30.18S
AUGUSTA        CLOUDY    53  49  86 N9        30.19S
6HR MIN TEMP:  53; 6HR MAX TEMP:  56;

WATERVILLE     CLOUDY    54  46  76 N6        30.15S
BANGOR         CLOUDY    53  47  79 NE8       30.20F
6HR MIN TEMP:  53; 6HR MAX TEMP:  57;

GREENVILLE       N/A     48  44  86 E5        30.19R
6HR MIN TEMP:  48; 6HR MAX TEMP:  52;

MILLINOCKET    PTCLDY    49  45  86 NE5       30.24R
6HR MIN TEMP:  49; 6HR MAX TEMP:  55;

HOULTON        MOCLDY    35  34  96 CALM      30.23S
6HR MIN TEMP:  35; 6HR MAX TEMP:  51;

PRESQUE ISLE   CLOUDY    34  30  86 CALM      30.25R VSB 1/4
6HR MIN TEMP:  34; 6HR MAX TEMP:  45;

FRENCHVILLE    CLEAR     40  39  97 E6        30.24S
6HR MIN TEMP:  40; 6HR MAX TEMP:  50;

CARIBOU        FOG       38  36  92 CALM      30.25R VSB 1
6HR MIN TEMP:  37; 6HR MAX TEMP:  49;

$$

NHZ002-005-008-009-011-012-014-020700-
NEW HAMPSHIRE

CITY           SKY/WX    TMP DP  RH WIND       PRES   REMARKS
PORTSMOUTH     CLOUDY    56  53  91 N8        30.12S
ROCHESTER      CLOUDY    55  52  89 N6        30.14S
6HR MIN TEMP:  55; 6HR MAX TEMP:  57;

NASHUA         RAIN      56  55  96 CALM      30.15S FOG
MANCHESTER     LGT RAIN  56  52  86 NE7       30.13S FOG
6HR MIN TEMP:  56; 6HR MAX TEMP:  57; 6HR PCP:  0.04;

CONCORD        CLOUDY    55  53  93 N6        30.15S
6HR MIN TEMP:  55; 6HR MAX TEMP:  56; 6HR PCP:  0.04;

LACONIA        CLOUDY    55  48  76 NE10G18   30.15S
PLYMOUTH       CLOUDY    56  55  94 CALM      30.16S
BERLIN         CLOUDY    55  51  86 CALM      30.18R
6HR MIN TEMP:  54; 6HR MAX TEMP:  57;

WHITEFIELD     CLOUDY    57  50  77 E9        30.16R
6HR MIN TEMP:  57; 6HR MAX TEMP:  60;

JAFFREY        LGT RAIN  54  53  97 VRB5      30.15S
6HR MIN TEMP:  54; 6HR MAX TEMP:  55; 6HR PCP:  0.12;

LEBANON        CLOUDY    57  54  89 CALM      30.14S
6HR MIN TEMP:  57; 6HR MAX TEMP:  61; 6HR PCP: TRACE;

MT WASHINGTON  MOCLDY    45  39  81 E10         N/A
6HR MIN TEMP:  43; 6HR MAX TEMP:  45;

$$

VTZ005-007-008-020700-
VERMONT

CITY           SKY/WX    TMP DP  RH WIND       PRES   REMARKS
ST JOHNSBURY     N/A     50  48  93 MISG      30.15R
MONTPELIER     CLOUDY    53  52  96 CALM      30.19R
BURLINGTON     CLOUDY    55  52  89 CALM      30.14S
$$

MAZ007-012-024-CTZ003-RIZ002-NYZ038-NYZ072-020700-
SOUTHERN NEW ENGLAND AND NY

CITY           SKY/WX    TMP DP  RH WIND       PRES   REMARKS
BOSTON         LGT RAIN  56  55  97 N14       30.11R
WORCESTER      LGT RAIN  53  52  96 NE9G18    30.11S
NANTUCKET      CLOUDY    61  58  90 NE15G24   29.98R
PROVIDENCE     LGT RAIN  58  56  93 N14       30.08S FOG
HARTFORD       CLOUDY    58  55  90 N8        30.10S
ALBANY         CLOUDY    60  57  89 NE5       30.13S
NEW YORK CITY  CLOUDY    60  57  89 NE8       30.08R
$$

ANZ081-ANZ082-ANZ150-NHZ014-MEZ023>029-020700-
COASTAL MARINE OBSERVATIONS

STATION/POSITION TIME  TEMP    WIND        PRES    WAVE
                       AIR SEA DIR/SP/G            HT/PER
                 (UTC) (F)     (DEG/KT/KT) (MB)    (FT/S)
MATINICUS ROCK   0600           50/ 18/ 20 1020.3F
PORTLAND WX BUOY 0550   57 56   30/ 12/ 14 1020.6F   4/ 6
WELLS            0500      56   20/  8/ 10 1019.8F
ISLE OF SHOALS   0600   57      40/ 25/ 28 1018.6F
JEFFREYS LEDGE   0521      56                N/A     9/ 8
CASHES LEDGE BUO 0550   56 58              1018.4F   7/ 7
$$

.............KEY..............
   WCI - WIND CHILL
   TC  - TEMPERATURE IN CELSIUS
   VSB - VISIBILITY IN MILES
   HX  - HEAT INDEX
   FAIR- INDICATES FEW OR NO CLOUDS BELOW 12,000 FT, WITH NO
         SIGNIFICANT WEATHER AND/OR OBSTRUCTIONS TO VISIBILITY.




USA.gov is the U.S. government's official web portal to all federal, state and local government web resources and services.